SES-2

Last updated on Feb. 25, 2020, 4:50 a.m. UTC

1 37809U 11049A   20055.54498222 -.00000208  00000-0  00000-0 0  9991
2 37809   0.0690 289.4775 0002447  47.4404 286.1294  1.00271980 30908
UTC
Height (km)
Latitude
Longitude
Inclination
Orbital Period
UTC large
Height (km)
Speed (km/s)
/
Latitude / Longitude
Inclination (degrees)
Orbital Period (minutes)
Azimuth
Elevation
Range (km)
Doppler Factor
iOS Compass Heading
iOS Angle

Next 30 passes for location: Hong Kong

Rise time Rise Azimuth (degrees) Set time Set Azimuth (degrees) Duration Max altitude (degrees)

No matching passes for this satellites